User: anonymous   Login
Location: Gradaro
(45.0833°N, 10.8833°E)
Time: 09:35:33
(UTC+00:00)
Language:

USA 308 - Orbit

View from above orbital plane
View from above orbital plane
View from above satellite
View from above satellite

Ground track
Ground track

The orbit data is extracted from the following two-line orbital elements,

1 45876U 20046D   21061.75611749 0.00002700  00000-0  22583-3 0    07
2 45876  53.9777   8.4085 0007520 156.2376 203.7623 14.98014837    07
Epoch (UTC): 02 March 2021 18:08:48
Eccentricity: 0.0007520
inclination: 53.9777°
perigee height: 568 km
apogee height: 578 km
right ascension of ascending node: 8.4085°
argument of perigee: 156.2376°
revolutions per day: 14.98014837
mean anomaly at epoch: 203.7623°
orbit number at epoch: 0

The dashed part of the orbit path shows where the satellite is in the earth's shadow,  

DLR